Temp
-9 -9 -9 -9 -8 -7 -7 -7 -8 -9 -10 -9 -10 -10 -10 -9 -9 -10 -8 -7 -7 -7 -7 -7 -7 -8 -8 -7 -7 -7 -7 -7 -7 -7 -7 -7 -8 -8 -9 -9 -9 -10 -10 -10 -10 -10 -11 -11 -11
-9 -9 -9 -9 -8 -8 -7 -9 -10 -10 -10 -10 -10 -11 -10 -10 -10 -9 -8 -8 -7 -7 -8 -8 -8 -8 -8 -8 -7 -7 -7 -7 -7 -7 -7 -8 -8 -8 -9 -9 -10 -10 -10 -11 -11 -11 -12 -12 -12
-10 -9 -9 -9 -8 -8 -8 -9 -10 -10 -10 -10 -11 -11 -11 -11 -11 -10 -9 -8 -8 -8 -8 -8 -8 -8 -8 -8 -8 -8 -8 -8 -8 -7 -8 -8 -8 -9 -9 -10 -10 -10 -11 -11 -12 -11 -12 -12 -12
-9 -9 -9 -9 -9 -9 -9 -9 -10 -12 -12 -10 -11 -11 -11 -11 -11 -10 -9 -9 -8 -9 -8 -8 -8 -8 -8 -8 -8 -8 -8 -8 -8 -8 -8 -8 -8 -9 -10 -10 -10 -11 -11 -12 -12 -12 -12 -12 -13
-9 -9 -9 -9 -9 -9 -9 -10 -10 -11 -11 -11 -10 -11 -11 -10 -10 -10 -9 -9 -9 -9 -9 -8 -8 -9 -8 -8 -8 -8 -8 -8 -8 -8 -8 -8 -9 -9 -10 -10 -11 -11 -11 -12 -12 -12 -13 -13 -13
-9 -10 -9 -9 -9 -10 -10 -10 -11 -12 -11 -11 -11 -10 -11 -11 -10 -10 -9 -9 -9 -9 -9 -9 -9 -9 -8 -8 -8 -8 -8 -8 -8 -8 -8 -8 -9 -10 -10 -10 -11 -11 -12 -12 -12 -13 -13 -13 -13
-11 -11 -9 -9 -9 -9 -10 -11 -11 -11 -11 -12 -12 -12 -12 -11 -11 -10 -9 -9 -9 -10 -9 -9 -9 -9 -9 -8 -8 -8 -8 -9 -9 -9 -9 -9 -9 -10 -11 -11 -11 -11 -12 -12 -12 -13 -13 -13 -13
-11 -11 -10 -10 -10 -10 -10 -10 -11 -11 -11 -11 -14 -12 -12 -11 -11 -10 -10 -9 -9 -10 -10 -9 -9 -9 -9 -9 -9 -8 -8 -9 -9 -9 -9 -9 -10 -10 -11 -11 -11 -12 -12 -12 -13 -12 -12 -12 -13
-11 -10 -9 -10 -11 -11 -11 -11 -12 -12 -12 -12 -14 -12 -12 -12 -11 -10 -10 -10 -9 -10 -10 -10 -10 -9 -10 -9 -9 -9 -9 -9 -9 -9 -9 -10 -10 -10 -11 -11 -11 -12 -12 -12 -12 -12 -12 -12 -12
-11 -10 -10 -11 -11 -11 -11 -11 -11 -12 -12 -12 -12 -13 -12 -12 -12 -11 -10 -10 -10 -10 -11 -11 -10 -10 -10 -10 -10 -9 -9 -9 -10 -10 -10 -10 -10 -10 -11 -11 -12 -12 -12 -12 -12 -13 -12 -13 -12
-11 -10 -11 -11 -11 -12 -11 -11 -11 -11 -11 -12 -11 -12 -13 -11 -12 -11 -11 -10 -10 -10 -10 -11 -11 -10 -10 -10 -10 -10 -9 -10 -10 -10 -10 -10 -10 -10 -11 -11 -12 -12 -12 -12 -12 -12 -12 -13 -12
-11 -12 -12 -11 -12 -12 -11 -12 -11 -11 -11 -11 -11 -11 -11 -11 -10 -10 -10 -9 -10 -9 -10 -11 -11 -11 -11 -10 -10 -10 -10 -10 -10 -10 -10 -11 -11 -11 -12 -12 -12 -12 -12 -12 -12 -12 -12 -13 -12
-11 -12 -12 -12 -12 -12 -12 -11 -11 -12 -12 -11 -11 -11 -11 -11 -11 -11 -10 -10 -9 -10 -10 -11 -11 -11 -11 -11 -11 -10 -10 -10 -10 -11 -11 -11 -11 -11 -12 -13 -13 -13 -13 -13 -13 -12 -12 -12 -12
-13 -13 -13 -13 -13 -13 -13 -12 -12 -12 -12 -12 -12 -12 -12 -11 -11 -11 -10 -10 -10 -11 -10 -10 -11 -12 -11 -11 -11 -11 -11 -10 -11 -11 -11 -11 -12 -13 -13 -14 -14 -13 -13 -13 -13 -13 -12 -12 -12
-14 -13 -13 -13 -13 -14 -15 -13 -12 -13 -14 -13 -13 -13 -13 -12 -12 -11 -11 -10 -10 -11 -11 -10 -10 -11 -11 -11 -11 -11 -11 -11 -11 -11 -11 -12 -13 -14 -15 -14 -14 -14 -13 -14 -13 -13 -12 -12 -12
-14 -15 -14 -14 -15 -15 -16 -14 -13 -14 -14 -13 -13 -13 -13 -13 -12 -12 -11 -11 -11 -11 -11 -10 -10 -10 -12 -11 -11 -11 -11 -11 -11 -11 -12 -13 -14 -15 -15 -14 -14 -14 -14 -14 -14 -13 -12 -12 -12
-15 -16 -16 -14 -15 -16 -16 -15 -14 -14 -14 -14 -13 -13 -13 -13 -13 -13 -11 -11 -11 -11 -11 -10 -10 -10 -11 -11 -11 -11 -11 -11 -11 -12 -13 -14 -15 -15 -15 -14 -14 -14 -14 -14 -14 -13 -13 -13 -12
-16 -16 -16 -16 -15 -17 -16 -16 -16 -15 -15 -14 -14 -14 -13 -13 -13 -13 -12 -11 -11 -11 -11 -11 -10 -10 -10 -11 -11 -11 -11 -12 -12 -12 -14 -15 -15 -15 -15 -15 -15 -14 -15 -14 -13 -12 -12 -12 -12
-16 -16 -17 -16 -17 -17 -17 -16 -16 -16 -16 -15 -15 -14 -14 -13 -13 -14 -13 -12 -11 -11 -11 -11 -10 -10 -10 -11 -12 -12 -12 -12 -13 -13 -14 -15 -15 -16 -15 -15 -14 -14 -15 -14 -14 -13 -13 -12 -12
-16 -17 -17 -18 -17 -18 -18 -17 -16 -16 -16 -15 -15 -15 -15 -15 -15 -14 -13 -13 -12 -12 -11 -11 -10 -10 -11 -12 -12 -12 -12 -12 -12 -13 -15 -16 -16 -15 -15 -14 -14 -14 -14 -14 -14 -13 -13 -12 -12
-18 -19 -19 -19 -18 -19 -18 -18 -17 -16 -17 -18 -16 -17 -16 -15 -15 -14 -13 -13 -13 -12 -12 -11 -11 -10 -11 -12 -13 -12 -12 -12 -12 -14 -15 -16 -15 -15 -15 -14 -14 -14 -14 -14 -14 -13 -14 -13 -13
-21 -20 -21 -21 -21 -20 -20 -18 -17 -16 -17 -18 -18 -18 -17 -15 -15 -14 -14 -13 -13 -12 -12 -11 -11 -11 -11 -12 -13 -12 -12 -12 -13 -14 -15 -15 -15 -15 -15 -14 -14 -14 -14 -14 -14 -13 -13 -13 -13
-22 -22 -21 -22 -22 -21 -20 -20 -16 -17 -18 -18 -18 -17 -17 -17 -15 -14 -13 -13 -13 -12 -12 -12 -11 -11 -11 -12 -13 -12 -12 -13 -13 -14 -15 -15 -15 -15 -14 -14 -14 -14 -14 -14 -14 -13 -13 -13 -13
-23 -22 -21 -21 -22 -21 -19 -20 -16 -17 -17 -18 -17 -17 -16 -16 -15 -15 -14 -14 -13 -12 -12 -12 -11 -11 -12 -12 -13 -12 -12 -13 -14 -14 -14 -15 -15 -15 -14 -14 -14 -14 -14 -14 -14 -13 -14 -13 -13
-23 -23 -22 -21 -21 -20 -20 -19 -16 -18 -17 -17 -17 -17 -16 -16 -16 -15 -15 -15 -14 -13 -12 -12 -12 -12 -12 -12 -13 -12 -12 -14 -14 -14 -15 -15 -15 -15 -14 -14 -14 -13 -14 -14 -13 -14 -13 -13 -13
-23 -23 -22 -21 -20 -19 -20 -16 -18 -19 -18 -15 -16 -16 -16 -16 -16 -16 -16 -15 -14 -13 -13 -13 -12 -12 -12 -13 -12 -12 -13 -14 -14 -14 -15 -15 -15 -15 -14 -14 -14 -13 -13 -13 -13 -13 -13 -13 -13
-23 -22 -21 -21 -21 -19 -19 -17 -18 -18 -18 -17 -16 -16 -16 -17 -16 -17 -16 -16 -14 -14 -13 -13 -12 -12 -12 -12 -12 -13 -14 -14 -14 -15 -15 -15 -15 -15 -14 -14 -14 -14 -13 -13 -13 -13 -13 -13 -13
-23 -22 -22 -21 -20 -19 -19 -18 -17 -17 -18 -17 -16 -17 -16 -17 -16 -16 -16 -16 -14 -15 -14 -13 -13 -12 -12 -13 -13 -14 -14 -14 -15 -15 -15 -14 -15 -15 -14 -14 -14 -13 -13 -13 -13 -13 -13 -12 -13
-22 -22 -21 -21 -20 -19 -18 -17 -18 -16 -17 -17 -17 -17 -17 -17 -17 -18 -16 -16 -15 -14 -14 -13 -13 -12 -13 -13 -14 -15 -15 -15 -15 -16 -15 -15 -15 -15 -15 -14 -13 -13 -13 -13 -13 -13 -13 -13 -13
-21 -21 -21 -20 -20 -19 -19 -18 -18 -17 -17 -17 -17 -18 -18 -18 -17 -18 -16 -15 -15 -14 -14 -13 -14 -14 -14 -14 -15 -15 -15 -15 -16 -15 -15 -16 -15 -15 -14 -14 -13 -13 -13 -13 -13 -13 -13 -13 -13
Height
5831 5831 5832 5834 5838 5839 5842 5845 5843 5846 5847 5844 5846 5849 5848 5848 5848 5848 5849 5852 5852 5852 5852 5852 5852 5852 5852 5852 5851 5851 5851 5850 5848 5846 5845 5843 5841 5840 5838 5837 5836 5834 5833 5832 5832 5832 5831 5831 5832
5824 5825 5827 5827 5830 5831 5837 5838 5839 5837 5837 5839 5842 5843 5845 5842 5841 5843 5846 5845 5848 5848 5849 5848 5848 5848 5848 5848 5848 5848 5847 5846 5845 5843 5841 5840 5838 5836 5835 5834 5833 5831 5829 5829 5829 5829 5828 5828 5829
5819 5819 5820 5819 5820 5826 5831 5832 5834 5832 5833 5832 5835 5837 5840 5838 5834 5837 5841 5841 5843 5844 5844 5845 5844 5844 5844 5845 5844 5844 5844 5843 5842 5840 5838 5836 5834 5833 5832 5831 5830 5828 5827 5826 5826 5826 5826 5825 5826
5812 5813 5815 5812 5815 5821 5824 5825 5830 5825 5824 5826 5826 5826 5828 5830 5830 5833 5837 5836 5839 5839 5839 5840 5840 5840 5839 5840 5840 5840 5839 5838 5837 5836 5834 5832 5831 5830 5828 5826 5826 5825 5824 5823 5822 5824 5822 5822 5822
5804 5805 5806 5807 5810 5817 5817 5818 5820 5822 5819 5818 5818 5819 5817 5820 5823 5827 5830 5832 5832 5834 5833 5835 5837 5835 5835 5835 5836 5835 5834 5834 5833 5831 5829 5828 5827 5825 5824 5822 5821 5821 5821 5820 5818 5819 5818 5818 5819
5793 5796 5798 5801 5805 5806 5808 5811 5812 5816 5817 5814 5811 5811 5812 5810 5815 5817 5821 5824 5825 5827 5828 5829 5831 5832 5830 5830 5830 5830 5830 5829 5827 5826 5825 5823 5822 5821 5820 5818 5816 5817 5817 5816 5814 5815 5815 5815 5814
5787 5786 5789 5791 5792 5798 5804 5805 5805 5805 5807 5805 5808 5804 5804 5807 5808 5808 5811 5816 5821 5821 5821 5823 5824 5826 5825 5824 5824 5824 5824 5824 5823 5821 5820 5819 5818 5816 5815 5814 5812 5812 5814 5813 5811 5810 5810 5811 5812
5779 5778 5780 5780 5783 5790 5794 5794 5795 5795 5798 5797 5796 5797 5793 5797 5801 5801 5800 5806 5812 5815 5814 5815 5816 5819 5819 5818 5819 5819 5818 5819 5818 5816 5815 5815 5813 5812 5811 5809 5809 5809 5810 5809 5807 5805 5804 5805 5809
5767 5768 5772 5775 5776 5783 5782 5782 5787 5786 5785 5787 5787 5788 5788 5788 5790 5793 5793 5797 5804 5808 5807 5807 5809 5812 5812 5812 5813 5813 5813 5814 5813 5811 5811 5810 5809 5808 5806 5806 5805 5805 5805 5805 5805 5802 5803 5804 5806
5756 5759 5763 5765 5766 5767 5769 5770 5772 5774 5773 5777 5780 5780 5780 5783 5781 5783 5786 5787 5793 5800 5800 5801 5802 5805 5805 5806 5806 5807 5807 5807 5807 5806 5805 5805 5804 5803 5802 5801 5800 5801 5800 5800 5800 5799 5799 5801 5802
5749 5750 5752 5752 5752 5755 5757 5759 5761 5763 5764 5764 5772 5772 5772 5772 5772 5774 5778 5780 5781 5788 5792 5795 5796 5796 5798 5799 5800 5801 5800 5800 5800 5800 5799 5799 5798 5797 5796 5796 5795 5795 5795 5796 5796 5795 5794 5797 5796
5737 5739 5742 5744 5743 5743 5745 5750 5751 5752 5754 5752 5755 5760 5762 5763 5760 5764 5767 5769 5773 5778 5784 5787 5789 5790 5790 5791 5793 5794 5794 5794 5793 5794 5793 5792 5791 5791 5789 5789 5788 5788 5788 5789 5790 5790 5789 5790 5790
5726 5730 5729 5731 5731 5732 5732 5735 5738 5741 5740 5741 5747 5749 5751 5755 5755 5756 5756 5758 5763 5769 5772 5778 5780 5782 5783 5784 5786 5787 5786 5787 5787 5787 5787 5785 5784 5782 5781 5781 5780 5781 5780 5781 5782 5783 5784 5784 5786
5716 5716 5718 5720 5720 5718 5716 5722 5722 5730 5730 5732 5737 5743 5741 5742 5744 5748 5749 5751 5754 5761 5761 5768 5772 5772 5774 5777 5778 5780 5779 5780 5780 5780 5779 5777 5776 5773 5773 5773 5773 5773 5773 5774 5775 5777 5779 5778 5780
5703 5703 5705 5710 5708 5706 5706 5702 5711 5717 5719 5719 5727 5729 5730 5732 5734 5736 5739 5740 5744 5751 5753 5755 5762 5764 5765 5768 5771 5772 5772 5773 5773 5772 5770 5769 5768 5765 5765 5767 5766 5765 5765 5767 5768 5770 5771 5773 5774
5692 5690 5692 5703 5696 5698 5689 5686 5702 5700 5701 5708 5711 5715 5717 5721 5724 5727 5730 5733 5735 5741 5745 5746 5749 5756 5758 5760 5762 5764 5765 5766 5765 5764 5762 5760 5759 5758 5758 5759 5759 5759 5758 5759 5761 5762 5764 5765 5768
5685 5676 5676 5683 5683 5679 5674 5672 5685 5687 5686 5690 5697 5702 5703 5704 5710 5716 5720 5722 5727 5731 5734 5735 5740 5745 5750 5752 5755 5756 5757 5758 5758 5756 5755 5753 5751 5752 5752 5752 5751 5752 5751 5751 5753 5754 5756 5758 5761
5667 5660 5664 5664 5679 5662 5661 5659 5666 5672 5670 5675 5682 5686 5690 5692 5699 5704 5709 5712 5716 5721 5725 5726 5731 5736 5741 5745 5746 5748 5750 5749 5748 5748 5747 5746 5745 5746 5745 5745 5745 5745 5744 5745 5745 5747 5748 5751 5755
5652 5647 5646 5653 5657 5648 5647 5646 5653 5658 5657 5664 5666 5670 5676 5684 5690 5694 5698 5702 5705 5710 5715 5718 5723 5728 5732 5738 5740 5741 5742 5741 5740 5738 5738 5738 5739 5739 5738 5738 5739 5739 5738 5738 5739 5740 5742 5745 5749
5635 5632 5633 5635 5641 5635 5634 5634 5641 5643 5646 5650 5652 5658 5666 5673 5678 5684 5688 5693 5695 5700 5706 5710 5715 5720 5724 5731 5731 5733 5734 5733 5732 5732 5732 5731 5732 5731 5731 5733 5732 5731 5731 5732 5734 5735 5735 5739 5744
5614 5614 5617 5618 5625 5620 5622 5621 5631 5637 5635 5639 5641 5646 5654 5661 5667 5674 5677 5681 5684 5691 5696 5702 5707 5711 5716 5721 5722 5724 5725 5724 5725 5725 5725 5725 5725 5725 5725 5726 5725 5724 5725 5727 5728 5730 5731 5733 5737
5596 5604 5604 5606 5609 5607 5613 5610 5621 5627 5625 5628 5634 5634 5643 5653 5657 5660 5665 5671 5678 5684 5688 5693 5699 5703 5707 5711 5715 5715 5715 5716 5717 5717 5716 5716 5719 5719 5719 5719 5718 5718 5719 5721 5723 5724 5725 5726 5731
5584 5595 5593 5597 5598 5599 5602 5603 5616 5616 5617 5620 5622 5627 5634 5640 5641 5646 5653 5661 5669 5676 5680 5685 5690 5694 5699 5702 5707 5705 5706 5708 5708 5708 5709 5710 5711 5712 5712 5712 5712 5712 5713 5714 5715 5718 5718 5721 5724
5577 5581 5585 5586 5590 5587 5597 5599 5605 5610 5613 5614 5616 5617 5624 5629 5636 5641 5651 5657 5663 5664 5668 5675 5682 5687 5692 5693 5696 5695 5696 5700 5699 5701 5702 5704 5704 5705 5705 5705 5705 5706 5706 5706 5708 5710 5712 5714 5718
5568 5573 5577 5581 5582 5581 5592 5593 5599 5602 5607 5611 5609 5614 5618 5623 5628 5636 5644 5648 5655 5661 5666 5669 5671 5680 5682 5684 5686 5686 5687 5690 5691 5694 5695 5697 5697 5697 5697 5698 5699 5699 5698 5699 5699 5701 5705 5707 5712
5559 5566 5571 5576 5580 5583 5586 5587 5593 5594 5600 5595 5602 5608 5611 5619 5624 5631 5635 5642 5647 5653 5657 5661 5665 5671 5672 5674 5676 5677 5680 5681 5684 5687 5688 5689 5690 5690 5690 5691 5691 5690 5690 5691 5692 5693 5696 5700 5705
5552 5554 5567 5573 5576 5579 5581 5584 5586 5588 5589 5589 5594 5600 5606 5612 5617 5622 5628 5633 5638 5643 5647 5653 5656 5659 5661 5665 5667 5668 5671 5673 5678 5680 5681 5682 5683 5683 5683 5683 5682 5682 5682 5681 5682 5684 5687 5692 5696
5546 5553 5561 5566 5572 5576 5579 5582 5581 5582 5586 5589 5590 5592 5603 5609 5612 5616 5621 5626 5631 5635 5641 5642 5646 5650 5655 5656 5657 5660 5664 5667 5669 5671 5674 5675 5674 5676 5676 5675 5674 5673 5672 5671 5671 5674 5679 5684 5689
5546 5551 5557 5565 5569 5572 5577 5577 5578 5583 5586 5582 5585 5595 5600 5603 5606 5610 5614 5619 5624 5627 5631 5636 5641 5644 5647 5648 5651 5654 5658 5660 5661 5664 5665 5667 5667 5668 5668 5667 5665 5663 5662 5662 5663 5667 5672 5677 5682
5543 5551 5558 5564 5568 5567 5570 5578 5574 5578 5579 5581 5583 5588 5591 5596 5601 5604 5608 5611 5617 5620 5624 5627 5633 5637 5640 5642 5646 5649 5651 5653 5656 5658 5659 5660 5661 5661 5660 5659 5656 5654 5653 5653 5656 5660 5665 5671 5677
Wind_Speed
34 34 35 35 35 35 30 27 26 13 17 22 25 34 39 34 33 34 33 28 24 21 18 17 17 17 18 19 21 21 21 19 19 19 18 20 23 24 24 24 24 24 23 20 17 18 21 21 25
39 39 39 40 40 37 32 28 23 18 23 27 33 33 38 39 35 34 35 35 28 26 21 20 18 19 19 20 21 23 22 20 20 20 21 22 22 24 23 23 23 23 23 21 17 16 17 19 24
37 41 42 44 46 41 35 32 24 27 20 26 34 38 39 40 42 37 35 36 33 29 29 23 19 21 22 22 22 24 21 19 20 22 24 22 23 24 22 22 23 23 24 21 18 18 18 19 22
40 42 41 46 44 36 36 35 28 20 23 32 38 45 46 44 44 39 36 38 34 34 32 29 21 23 24 22 22 24 22 21 22 24 25 24 24 23 21 22 20 22 23 21 21 20 20 19 23
44 44 45 47 42 35 35 34 29 29 34 37 44 48 49 45 42 40 39 37 39 36 36 35 25 25 26 20 21 23 25 26 24 25 27 26 25 24 22 21 21 20 22 23 21 20 21 20 22
45 45 48 47 42 38 37 35 34 25 38 40 46 49 50 46 41 39 41 42 41 39 37 36 29 26 25 22 21 22 25 25 23 25 25 24 24 24 22 21 21 19 19 22 23 23 25 23 24
45 47 47 48 47 42 35 34 37 38 36 44 48 52 53 49 46 47 45 42 39 40 39 37 34 25 25 24 22 22 26 24 22 22 23 23 23 23 21 21 23 22 19 22 25 24 20 22 25
47 49 50 50 49 42 34 36 37 39 41 41 43 48 54 51 49 49 51 46 40 40 40 39 37 25 27 25 23 24 27 24 20 22 23 22 22 23 22 22 22 23 23 26 27 32 23 18 21
46 48 45 49 48 43 41 41 31 37 44 43 45 49 47 46 48 49 51 47 42 38 40 40 38 29 28 26 25 27 27 24 22 23 24 22 21 22 22 23 25 23 23 23 25 23 23 23 24
45 46 45 46 46 48 47 48 47 41 48 51 50 52 52 48 52 51 49 47 42 38 40 41 37 30 29 28 27 27 26 24 24 24 23 22 23 25 24 23 26 24 25 26 24 24 25 30 27
42 45 42 46 49 49 50 50 50 50 52 55 51 55 54 51 55 53 48 50 48 42 42 39 36 33 31 29 29 28 25 24 25 25 24 25 26 30 27 26 28 26 26 26 25 25 24 23 19
45 41 41 42 46 51 53 51 52 53 56 58 54 52 52 50 53 52 51 52 49 43 40 39 37 34 32 31 31 27 26 25 26 26 28 27 29 32 30 28 30 27 28 27 27 27 24 24 18
49 42 42 43 43 48 54 55 57 56 58 60 57 54 53 50 51 50 52 52 46 44 43 38 36 34 32 31 31 27 28 26 27 28 30 30 32 34 32 30 32 29 28 27 29 25 25 29 27
45 47 46 43 44 48 54 53 59 57 60 61 56 51 53 51 50 50 50 51 48 40 44 39 34 32 33 31 32 29 29 28 30 30 32 33 34 34 33 32 32 30 29 27 29 27 27 27 24
47 51 50 48 48 48 51 57 54 56 53 59 54 50 51 54 53 50 51 51 46 39 40 42 34 31 33 32 33 31 30 31 31 33 33 35 34 33 33 31 29 28 29 28 29 28 28 27 31
49 52 52 45 45 45 51 60 52 56 58 60 58 58 55 52 53 55 52 48 48 41 38 41 38 34 31 33 33 32 33 32 32 33 34 35 34 31 30 29 27 25 29 28 28 29 29 30 30
53 55 54 55 47 48 54 60 53 56 59 59 61 58 58 56 56 56 52 50 43 41 39 42 38 38 33 35 34 34 33 33 32 33 33 33 31 29 28 28 26 25 27 28 29 29 28 30 29
55 56 57 58 52 51 54 58 54 53 55 58 52 60 62 57 52 48 49 45 43 42 40 42 38 37 35 33 34 34 33 34 33 33 32 32 29 27 29 27 24 24 26 26 27 31 29 31 25
63 66 64 64 53 51 54 56 53 44 45 48 48 56 60 53 44 46 44 41 42 43 39 40 38 34 31 27 32 33 33 34 34 34 32 29 26 27 29 26 24 23 26 26 26 30 25 25 26
70 68 65 57 52 49 50 54 47 40 41 40 50 47 44 33 37 40 40 41 39 37 39 38 37 34 30 25 32 33 33 34 34 34 31 28 25 29 29 25 24 25 27 27 28 31 33 25 27
64 59 55 53 49 47 49 53 43 36 42 31 32 41 34 39 37 38 38 46 41 37 35 36 34 34 33 27 30 32 34 35 32 32 25 26 27 29 28 24 25 26 26 29 32 28 34 32 29
52 49 42 36 37 47 43 49 39 33 32 23 21 34 28 36 38 45 46 44 44 40 36 36 39 36 33 30 28 32 35 34 32 31 27 28 27 27 27 24 25 27 28 28 33 29 35 33 31
44 35 31 23 31 43 47 42 31 27 29 29 21 21 37 42 48 48 46 42 35 37 39 39 36 38 33 33 28 35 35 33 32 30 29 26 28 27 25 24 26 27 28 30 29 33 27 32 32
32 41 38 28 34 46 36 35 29 23 25 16 20 28 33 36 47 46 44 40 39 38 40 37 41 36 32 30 29 36 37 29 30 29 28 27 29 26 24 25 27 29 29 30 29 31 28 29 35
29 42 38 30 36 36 22 27 21 14 29 21 30 32 32 33 33 33 34 33 34 37 38 37 37 31 29 31 34 39 36 28 30 29 26 28 27 27 25 26 29 29 30 31 35 31 30 30 38
31 41 38 33 26 11 11 16 4 18 28 28 35 30 26 29 37 32 37 29 32 30 31 34 33 28 31 33 38 38 31 29 28 29 28 25 26 25 26 29 29 30 29 33 33 31 34 31 39
24 45 28 27 23 12 14 2 15 20 45 38 22 32 31 25 25 30 31 32 36 40 37 33 33 35 37 36 36 34 29 29 28 28 26 26 23 25 28 30 29 32 33 31 35 34 33 31 39
30 42 34 31 30 16 17 16 25 19 30 27 41 42 29 24 31 27 31 33 34 36 35 34 36 34 33 32 33 29 26 28 28 29 30 23 22 26 29 30 32 32 30 32 29 33 37 41 39
26 33 27 29 27 10 10 24 31 23 18 18 25 27 25 25 24 24 26 30 33 32 31 32 30 28 26 28 27 25 26 26 26 24 22 21 23 26 28 29 30 30 27 30 30 34 38 40 37
21 17 28 29 25 14 9 6 24 27 19 42 28 10 21 24 23 20 24 26 27 30 32 31 28 25 25 24 23 26 28 25 24 21 22 22 23 25 27 27 26 24 28 24 27 34 35 40 42
Wind_Direction
267 265 264 264 259 259 260 262 263 263 206 218 222 252 254 256 251 239 266 267 270 270 264 266 273 279 283 292 300 301 299 300 303 305 308 307 306 304 302 304 305 301 299 298 296 286 273 257 249
265 265 266 264 260 259 258 262 272 220 202 227 235 250 260 262 259 257 263 264 265 269 269 266 266 271 277 286 296 295 294 299 301 306 310 310 305 301 301 304 304 296 293 296 296 287 277 263 253
270 267 264 262 262 263 266 264 264 268 236 237 257 258 255 257 259 253 260 262 264 271 268 267 260 263 269 278 287 292 291 293 299 306 309 309 303 300 301 304 302 289 286 289 290 285 277 267 251
267 267 267 267 266 266 267 265 263 207 225 237 241 251 252 252 257 258 257 260 265 265 272 266 254 255 263 273 284 287 289 293 297 301 304 305 304 302 301 299 297 289 284 284 281 279 269 260 247
266 267 268 269 270 272 267 262 257 228 235 242 243 247 256 253 254 260 262 259 254 260 266 265 260 252 258 264 274 282 288 291 295 297 300 304 305 302 303 298 295 285 284 279 275 267 259 256 245
262 263 267 270 271 266 262 262 264 251 239 239 257 261 258 262 263 258 254 253 258 259 261 268 262 254 256 258 265 278 285 288 292 295 300 303 303 303 301 296 295 289 286 278 268 266 263 248 242
264 261 263 265 263 263 267 266 263 256 245 242 248 258 263 261 263 262 257 254 256 261 262 264 259 254 257 256 263 276 285 287 290 295 298 303 300 298 294 289 288 290 279 275 273 269 250 248 243
267 266 266 264 264 263 261 263 266 264 258 247 247 250 259 262 260 258 260 259 257 260 265 266 262 258 258 257 262 272 282 283 287 293 300 299 299 300 294 290 286 285 284 283 275 277 245 239 243
264 267 274 272 269 264 255 254 254 252 256 243 246 256 254 264 265 263 265 262 257 261 266 267 264 258 256 256 261 268 277 279 285 294 298 294 300 302 297 290 286 284 282 280 287 296 263 251 246
262 267 268 269 265 262 257 251 249 243 253 246 245 251 258 260 265 264 263 268 263 258 262 264 264 258 250 256 260 264 272 278 287 293 295 295 299 300 299 291 286 283 278 273 279 292 262 242 248
276 275 264 262 262 262 259 254 251 248 251 256 253 248 251 256 257 259 263 264 264 259 258 264 261 259 251 255 256 260 269 275 285 293 292 294 298 298 296 291 282 280 278 270 268 275 271 270 252
276 275 274 268 263 262 262 260 257 256 256 251 256 257 254 257 261 261 259 259 260 261 262 260 257 257 255 253 256 257 263 272 281 288 291 293 296 298 291 284 277 276 273 268 262 266 279 285 245
284 283 275 273 264 260 261 260 258 257 258 258 256 258 264 262 260 262 264 266 265 261 261 259 255 253 250 250 254 257 263 272 279 284 290 291 292 294 287 278 274 271 267 262 260 262 267 275 256
283 279 278 280 277 268 261 258 258 259 257 260 263 261 261 261 261 261 263 262 263 260 259 256 254 252 247 246 249 253 263 271 278 283 288 291 292 288 282 274 275 272 264 259 255 254 258 261 251
283 284 285 285 288 279 274 269 265 260 258 258 254 256 258 258 257 256 257 264 261 262 259 256 250 244 247 245 242 251 260 268 276 280 286 286 288 279 274 273 272 268 262 258 254 253 253 250 239
290 290 293 295 284 278 269 273 270 266 260 254 255 251 249 251 254 258 256 253 258 256 256 256 252 238 241 243 242 250 257 267 275 279 282 282 284 274 272 275 268 264 264 260 254 253 252 252 232
293 296 291 288 279 269 264 267 266 262 261 260 253 250 251 254 249 248 254 254 252 252 251 250 247 238 235 240 246 250 257 268 276 278 278 280 275 274 276 274 266 264 266 267 260 252 258 238 231
290 286 286 286 287 270 266 264 263 264 264 261 260 249 248 250 248 246 250 250 250 245 245 246 241 236 240 235 247 256 261 267 273 277 277 275 268 274 278 272 266 267 274 272 266 253 249 231 230
288 286 285 285 277 266 265 266 266 263 267 263 257 249 244 252 246 241 243 249 246 245 240 238 237 239 243 240 250 255 262 264 264 272 273 266 266 273 276 271 269 272 277 267 264 247 246 239 221
282 279 277 274 270 262 262 265 266 266 277 260 254 252 240 239 239 239 241 244 242 238 233 231 235 240 237 235 249 253 258 262 268 272 262 261 267 273 274 269 272 278 274 263 264 248 235 227 222
281 273 270 268 263 253 258 260 263 270 281 276 252 232 230 226 229 233 233 236 237 231 231 232 239 243 241 239 247 253 259 267 274 277 255 256 260 272 271 271 278 281 269 261 261 250 245 224 229
271 269 261 265 264 257 257 261 259 270 279 218 240 227 226 229 229 226 229 235 240 241 240 243 242 242 245 248 251 256 260 266 268 262 250 255 261 264 264 271 279 278 264 264 258 257 248 243 232
257 248 248 252 250 252 251 258 255 279 248 215 210 223 216 224 222 223 222 225 231 235 237 236 240 244 247 250 245 254 261 266 264 252 243 252 259 258 262 273 277 275 268 261 262 259 245 230 227
251 224 243 231 244 252 252 254 252 285 211 191 207 208 216 233 229 230 231 235 236 235 233 237 240 244 245 248 247 257 261 261 256 245 244 250 251 255 259 269 274 275 270 262 253 255 262 242 226
235 220 238 244 244 260 262 257 268 238 192 191 227 215 212 220 228 231 231 236 239 245 250 247 240 241 240 246 247 254 258 251 247 242 244 245 250 256 261 266 269 270 267 262 259 250 247 240 226
226 215 221 232 247 256 210 256 332 203 180 192 205 231 222 224 225 228 232 231 235 237 240 247 252 245 243 243 244 252 250 243 243 242 242 245 250 259 263 266 270 270 267 268 253 259 245 238 232
226 206 204 222 231 245 232 232 184 193 199 213 209 224 229 222 213 224 228 228 234 233 223 241 242 237 241 245 249 250 237 242 239 236 242 242 251 260 267 270 270 268 276 259 259 251 236 243 230
217 206 208 211 230 225 230 214 204 217 207 208 218 223 228 230 229 216 223 230 233 232 237 228 235 243 245 243 245 239 237 231 235 235 235 239 255 263 267 273 271 268 263 270 254 243 237 237 226
219 196 198 214 218 207 219 187 219 180 174 201 207 211 229 239 236 227 228 227 229 226 225 232 238 241 240 240 235 236 232 233 237 234 238 250 261 268 273 273 272 276 265 265 240 223 224 226 219
177 170 195 210 212 192 219 137 151 199 151 204 234 218 231 236 234 230 231 227 220 224 224 221 228 235 232 230 229 228 225 233 229 236 244 255 264 273 280 276 281 270 273 245 222 224 225 215 224